Alice Springs, Australia

10:55 PM ACST on October 23, 2019 (GMT +0930)
Alice Springs

Weather History for YBAS - August, 2019

Change the Weather History Date:

Tuesday, August 6, 2019

  Actual Average Record
Temperature  
Mean Temperature 58 °F -  
Max Temperature 78 °F 74 °F 78 °F (2003)
Min Temperature 38 °F 44 °F 29 °F (2015)
Degree Days  
Heating Degree Days 7    
Growing Degree Days 8 (Base 50)    
Moisture  
Dew Point 27 °F    
Average Humidity 28    
Maximum Humidity 52    
Minimum Humidity 9    
Precipitation  
Precipitation 0.00 in 0.02 in - ()
Sea Level Pressure  
Sea Level Pressure 30.05 in    
Wind  
Wind Speed 3 mph ()    
Max Wind Speed 13 mph    
Max Gust Speed -    
Visibility 6.2 miles    
Events      
Averages and records for this station are not official NWS values.
T = Trace of Precipitation, MM = Missing Value Source: Averaged Metar Reports

Daily Weather History Graph

Daily Weather History Graph

Search for Another Location

Airport or City:

Astronomy

Aug. 06, 2019 Rise Set
Actual Time 7:07 AM ACST 6:13 PM ACST
Civil Twilight 6:43 AM ACST 6:37 PM ACST
Nautical Twilight 6:16 AM ACST 7:04 PM ACST
Astronomical Twilight 5:49 AM ACST 7:31 PM ACST
Moon 10:59 AM ACST (8/6) 11:41 PM ACST (8/6)
Length of Visible Light 11h 53m
Length of Day
11h 06m
Waxing Crescent, 32% of the Moon is Illuminated
Aug 6
Waxing Crescent
Aug 8
First Quarter
Aug 15
Full
Aug 24
Last Quarter
Aug 30
New

Hourly Weather History & Observations

Time (ACST) Temp. Windchill Dew Point Humidity Pressure Visibility Wind Dir Wind Speed Gust Speed Precip Events Conditions
12:00 AM 47 °F - 23 °F 26% 30.14 in - Calm Calm - -   Clear
12:00 AM 48.2 °F - 23.0 °F 37% 30.15 in 6.2 mi Calm Calm - N/A   Unknown
12:30 AM 53 °F - 29 °F 27% 30.13 in - Calm Calm - -  
12:30 AM 51.8 °F - 28.4 °F 41% 30.15 in 6.2 mi Calm Calm - N/A   Unknown
1:30 AM 46.4 °F 44.3 °F 23.0 °F 40% 30.12 in 6.2 mi WNW 4.6 mph - N/A   Unknown
2:00 AM 46.4 °F - 24.8 °F 43% 30.12 in 6.2 mi Calm Calm - N/A   Unknown
2:30 AM 44 °F - 23 °F 31% 30.11 in - Calm Calm - -  
2:30 AM 44.6 °F - 23.0 °F 43% 30.12 in 6.2 mi Calm Calm - N/A   Unknown
3:00 AM 44 °F - 24 °F 33% 30.10 in - SW 4.6 mph - -   Clear
3:00 AM 44.6 °F 42.2 °F 24.8 °F 46% 30.09 in 6.2 mi SW 4.6 mph - N/A   Unknown
3:30 AM 43 °F - 23 °F 32% 30.09 in - SSW 4.6 mph - -  
3:30 AM 42.8 °F 40.1 °F 23.0 °F 46% 30.09 in 6.2 mi SSW 4.6 mph - N/A   Unknown
4:00 AM 44.6 °F 43.1 °F 24.8 °F 46% 30.09 in 6.2 mi WNW 3.5 mph - N/A   Unknown
4:30 AM 42.8 °F 41.1 °F 24.8 °F 49% 30.09 in 6.2 mi SSW 3.5 mph - N/A   Unknown
5:00 AM 41.0 °F 36.4 °F 23.0 °F 49% 30.09 in 6.2 mi West 6.9 mph - N/A   Unknown
5:30 AM 42 °F - 26 °F 40% 30.09 in - WSW 4.6 mph - -  
5:30 AM 42.8 °F 40.1 °F 24.8 °F 49% 30.09 in 6.2 mi WSW 4.6 mph - N/A   Unknown
6:00 AM 42 °F - 26 °F 39% 30.09 in - West 4.6 mph - -   Clear
6:00 AM 42.8 °F 40.1 °F 24.8 °F 49% 30.09 in 6.2 mi West 4.6 mph - N/A   Unknown
6:30 AM 41 °F - 24 °F 38% 30.10 in - NNW 1.2 mph - -  
6:30 AM 41.0 °F - 23.0 °F 49% 30.12 in 6.2 mi NNW 1.2 mph - N/A   Unknown
7:00 AM 39.2 °F 37.0 °F 23.0 °F 52% 30.12 in 6.2 mi WNW 3.5 mph - N/A   Unknown
7:30 AM 41.0 °F 38.0 °F 23.0 °F 49% 30.12 in 6.2 mi WSW 4.6 mph - N/A   Unknown
8:00 AM 46.4 °F 44.3 °F 26.6 °F 46% 30.12 in 6.2 mi WSW 4.6 mph - N/A   Unknown
8:30 AM 51 °F - 26 °F 25% 30.12 in - NW 1.2 mph - -  
8:30 AM 50.0 °F - 26.6 °F 40% 30.12 in 6.2 mi NW 1.2 mph - N/A   Unknown
9:00 AM 58 °F - 28 °F 20% 30.12 in - Calm Calm - -   Clear
9:00 AM 59.0 °F - 28.4 °F 31% 30.12 in - Calm Calm - N/A   Clear
9:30 AM 64 °F - 29 °F 16% 30.12 in - NNW 2.3 mph - -  
9:30 AM 64.4 °F - 28.4 °F 26% 30.12 in - NNW 2.3 mph - N/A   Clear
10:00 AM 66.2 °F - 28.4 °F 24% 30.12 in - North 4.6 mph - N/A   Clear
10:30 AM 69.8 °F - 28.4 °F 21% 30.12 in - NNE 5.8 mph - N/A   Clear
11:00 AM 71.6 °F - 30.2 °F 22% 30.09 in - North 3.5 mph - N/A   Clear
11:30 AM 74 °F - 30 °F 11% 30.08 in - NNW 3.5 mph - -  
11:30 AM 73.4 °F - 30.2 °F 20% 30.09 in 6.2 mi NNW 3.5 mph - N/A   Unknown
12:00 PM 75 °F - 31 °F 11% 30.06 in - ESE 4.6 mph - -   Clear
12:00 PM 75.2 °F - 32.0 °F 21% 30.06 in 6.2 mi ESE 4.6 mph - N/A   Unknown
12:30 PM 75 °F - 30 °F 10% 30.04 in - SE 8.1 mph - -  
12:30 PM 75.2 °F - 30.2 °F 19% 30.06 in 6.2 mi SE 8.1 mph - N/A   Unknown
1:00 PM 77.0 °F - 30.2 °F 18% 30.04 in 6.2 mi North 6.9 mph - N/A   Unknown
1:30 PM 77.0 °F - 30.2 °F 18% 30.01 in 6.2 mi West 8.1 mph - N/A   Unknown
2:30 PM 76 °F - 29 °F 9% 29.97 in - NW 9.2 mph - -  
2:30 PM 75.2 °F - 30.2 °F 19% 29.98 in 6.2 mi NW 9.2 mph - N/A   Unknown
3:00 PM 77 °F - 29 °F 9% 29.96 in - West 12.7 mph - -   Clear
3:00 PM 77.0 °F - 28.4 °F 17% 29.98 in 6.2 mi West 12.7 mph - N/A   Unknown
3:30 PM 78 °F - 29 °F 9% 29.95 in - SW 8.1 mph - -  
3:30 PM 77.0 °F - 28.4 °F 17% 29.95 in 6.2 mi SW 8.1 mph - N/A   Unknown
4:00 PM 77.0 °F - 28.4 °F 17% 29.95 in 6.2 mi West 9.2 mph - N/A   Unknown
4:30 PM 77.0 °F - 28.4 °F 17% 29.95 in 6.2 mi West 10.4 mph - N/A   Unknown
5:00 PM 77.0 °F - 28.4 °F 17% 29.95 in 6.2 mi West 11.5 mph - N/A   Unknown
5:30 PM 76 °F - 28 °F 9% 29.94 in - West 9.2 mph - -  
5:30 PM 77.0 °F - 28.4 °F 17% 29.95 in 6.2 mi West 9.2 mph - N/A   Unknown
6:00 PM 75 °F - 29 °F 10% 29.94 in - West 5.8 mph - -   Clear
6:00 PM 75.2 °F - 28.4 °F 18% 29.95 in 6.2 mi West 5.8 mph - N/A   Unknown
6:30 PM 71 °F - 28 °F 11% 29.94 in - WSW 4.6 mph - -  
6:30 PM 71.6 °F - 28.4 °F 20% 29.95 in 6.2 mi WSW 4.6 mph - N/A   Unknown
7:00 PM 69.8 °F - 28.4 °F 21% 29.98 in 6.2 mi WNW 4.6 mph - N/A   Unknown
7:30 PM 68.0 °F - 30.2 °F 24% 29.98 in 6.2 mi Calm Calm - N/A   Unknown
8:00 PM 62.6 °F - 28.4 °F 27% 29.98 in 6.2 mi Calm Calm - N/A   Unknown
8:30 PM 63 °F - 29 °F 17% 29.99 in - North 5.8 mph - -  
8:30 PM 62.6 °F - 30.2 °F 30% 30.01 in 6.2 mi North 5.8 mph - N/A   Unknown
9:00 PM 63 °F - 31 °F 19% 29.99 in - West 5.8 mph - -   Clear
9:00 PM 62.6 °F - 30.2 °F 30% 30.01 in 6.2 mi West 5.8 mph - N/A   Unknown
9:30 PM 62 °F - 29 °F 18% 29.99 in - NW 3.5 mph - -  
9:30 PM 62.6 °F - 28.4 °F 27% 30.01 in 6.2 mi NW 3.5 mph - N/A   Unknown
10:00 PM 57.2 °F - 28.4 °F 33% 30.01 in 6.2 mi NW 4.6 mph - N/A   Unknown
10:30 PM 53.6 °F - 24.8 °F 33% 30.01 in 6.2 mi West 1.2 mph - N/A   Unknown
11:00 PM 51.8 °F - 24.8 °F 35% 29.98 in 6.2 mi NNE 1.2 mph - N/A   Scattered Clouds
11:30 PM 55 °F - 29 °F 24% 29.98 in - NW 4.6 mph - -  
11:30 PM 55.4 °F - 28.4 °F 36% 29.98 in 6.2 mi NW 4.6 mph - N/A   Overcast